Regional Weather Roundup
Issued by NWS Newport/Morehead, NC

Current Version | Previous Version | Text Only | Print | Product List | Glossary On
Versions: 1 2 3 4 5 6 7 8 9 10 11 12 13 14 15 16 17 18 19 20 21 22 23 24 25 26 27 28 29 30 31 32 33 34 35 36 37 38 39 40 41 42 43 44 45 46 47 48 49 50
000
ASUS42 KMHX 251713
RWRMHX
WEATHER ROUNDUP FOR EASTERN NORTH CAROLINA
NATIONAL WEATHER SERVICE NEWPORT/MOREHEAD CITY NC
100 PM EDT SAT MAR 25 2017

NOTE: "FAIR" INDICATES FEW OR NO CLOUDS BELOW 12,000 FEET
WITH NO SIGNIFICANT WEATHER AND/OR OBSTRUCTIONS TO VISIBILITY

NCZ015>017-031-032-045>047-102-103-251800-
NORTH COAST

CITY           SKY/WX    TMP DP  RH WIND       PRES   REMARKS
EDENTON        MOSUNNY   74  51  44 W10G17    30.30F
ELIZABETH CITY PTSUNNY   73  53  49 SW17G26   30.29F
KITTY HAWK     NOT AVBL
MANTEO         MOSUNNY   69  50  50 W10       30.31S

$$

NCZ045>047-081-094-103-104-251800-
CENTRAL COAST

CITY           SKY/WX    TMP DP  RH WIND       PRES   REMARKS
FRISCO         MOSUNNY   70  53  54 SW8       30.33F

$$

NCZ095-097-098-100-101-251800-
SOUTHERN COAST

CITY           SKY/WX    TMP DP  RH WIND       PRES   REMARKS
BEAUFORT       SUNNY     72  55  55 SW15      30.34F
CEDAR ISLAND   NOT AVBL
JACKSONVILLE   NOT AVBL
PINEY ISLAND   MOSUNNY  N/A N/A N/A S18G25    30.32F
WILMINGTON     PTSUNNY   73  49  42 S8        30.33F


$$

NCZ011>013-027>030-043-044-078>080-089-090>093-098-251800-
COASTAL PLAIN

CITY           SKY/WX    TMP DP  RH WIND       PRES   REMARKS
AHOSKIE          N/A     73  53  49 SW5       30.28F
CLINTON        MOSUNNY   73  54  51 SW10      30.32F
ELIZABETHTOWN  CLOUDY    73  50  43 SW8G16    30.32F
GOLDSBORO      CLOUDY    73  51  46 SW15      30.29F
GREENVILLE     PTSUNNY   73  50  43 SW13      30.30F
HAVELOCK       PTSUNNY   74  52  46 S14G23    30.33F
KENANSVILLE    CLOUDY    73  52  46 SW10G18   30.32F
KINSTON        PTSUNNY   73  50  43 SW12G17   30.31F
NEW BERN       PTSUNNY   75  51  43 SW10G18   30.32F
RICHLANDS      CLOUDY    72  54  53 SW9       30.32F
ROCKY MOUNT    CLOUDY    72  53  51 SW14G20   30.30F
WASHINGTON     MOSUNNY   74  51  45 SW12      30.30F
WHITEVILLE     PTSUNNY   73  49  43 SW6       30.32F

$$

AMZ130-135-150-152-154-156-158-170-250-252-270-ANZ085-086-088-633-658-670-251800-
MARINE OBSERVATIONS

STATION/POSITION TIME  TEMP    WIND        PRES    WAVE   SWELL
                       AIR SEA DIR/SP/G            HT/PER HT/PER
                 (UTC) (F)     (DEG/KT/KT) (MB)    (FT/S) (FT/S)
CHESAPEAKE LIGHT NOT AVBL
64 E VA BEACH    1650   53 49  210/ 14/ 14 1025.6    3/ 5   2/ 6
DUCK             1642   65 47  250/ 10/ 14 1025.6
2 E DUCK         1700      49                N/A     1/10
OREGON INLET     1642   59 55  190/ 14/ 16 1026.4
13E OREGON INLT  1648      50                N/A     2/ 5   2/11
HATTERAS CG      1642   67 56  210/  8/ 12 1026.9
DIAMOND BUOY     1650   69 76  240/ 14/ 17 1027.3    3/ 8   2/ 8
CAPE LOOKOUT     1700   70     200/ 11/ 15 1027.2
BEAUFORT LAB     1642   67 53  200/ 10/ 12 1026.7
30 SE NEW RVR IN 1608   67     200/  8/ 12 1028.4
30 SE NEW RVR IN 1643      65                N/A     3/ 7
27 SE WRIGHTSVLE 1608   66 62  220/  4/  6 1027.5
5 SE WRIGHTSVLE  1608   62 57  160/  6/  8 1028.0
225 S CAPE HAT   1650   66 73   80/ 12/ 14 1029.2    4/ 7   3/ 7
41 SE CHARLESTON 1650   70 70  130/ 14/ 16 1027.0    5/ 6   3/ 8

$$




USA.gov is the U.S. government's official web portal to all federal, state and local government web resources and services.